Weather History for Lancaster, SC

Change the Weather History Date:

Wednesday, March 12, 2014

  Actual Average (KUZA) Record (KUZA)
Temperature  
Mean Temperature 60 °F -  
Max Temperature 73 °F 66 °F 85 °F (1990)
Min Temperature 46 °F 42 °F 22 °F (1969)
Degree Days  
Heating Degree Days 6    
Growing Degree Days 10 (Base 50)    
Moisture  
Dew Point 52 °F    
Average Humidity 76    
Maximum Humidity 100    
Minimum Humidity 43    
Precipitation  
Precipitation 0.06 in - - ()
Sea Level Pressure  
Sea Level Pressure 29.56 in    
Wind  
Wind Speed 5 mph (SW)    
Max Wind Speed 28 mph    
Max Gust Speed 38 mph    
Visibility 9 miles    
Events Rain    
Averages and records for this station are not official NWS values.
T = Trace of Precipitation, MM = Missing Value Source: NWS Daily Summary

Daily Weather History Graph

Daily Weather History Graph

Search for Another Location

Airport:

Trip Planner

Search our weather history database for the weather conditions in past years. The results will help you decide how hot, cold, wet, or windy it might be!

Date:

Astronomy

Mar. 12, 2014 Rise Set
Actual Time 7:38 AM EDT 7:28 PM EDT
Civil Twilight 7:12 AM EDT 7:53 PM EDT
Nautical Twilight 6:43 AM EDT 8:23 PM EDT
Astronomical Twilight 6:14 AM EDT 8:52 PM EDT
Moon 4:04 PM EDT (3/12) 5:01 AM EDT (3/12)
Length of Visible Light 12h 40m
Length of Day
11h 50m
Waxing Gibbous, 85% of the Moon is Illuminated
Mar 12
Waxing Gibbous
Mar 16
Full
Mar 23
Last Quarter
Mar 30
New
Apr 7
First Quarter

Hourly Weather History & Observations

Time (EDT) Temp. Windchill Dew Point Humidity Pressure Visibility Wind Dir Wind Speed Gust Speed Precip Events Conditions
12:15 AM 59.0 °F - 50.0 °F 72% 29.72 in 10.0 mi Calm Calm - N/A   Clear
12:35 AM 59.0 °F - 50.0 °F 72% 29.71 in 10.0 mi Calm Calm - N/A   Clear
12:55 AM 59.0 °F - 50.0 °F 72% 29.70 in 10.0 mi Calm Calm - N/A   Clear
1:15 AM 60.8 °F - 50.0 °F 68% 29.70 in 10.0 mi SW 3.5 mph - N/A   Clear
1:35 AM 60.8 °F - 51.8 °F 72% 29.69 in 10.0 mi Calm Calm - N/A   Clear
1:55 AM 62.6 °F - 51.8 °F 68% 29.68 in 10.0 mi Calm Calm - N/A   Clear
2:15 AM 62.6 °F - 51.8 °F 68% 29.68 in 10.0 mi Calm Calm - N/A   Clear
2:35 AM 62.6 °F - 53.6 °F 72% 29.68 in 10.0 mi Calm Calm - N/A   Partly Cloudy
2:55 AM 60.8 °F - 53.6 °F 77% 29.68 in 10.0 mi SW 3.5 mph - N/A   Partly Cloudy
3:15 AM 60.8 °F - 53.6 °F 77% 29.67 in 10.0 mi Calm Calm - N/A   Mostly Cloudy
3:35 AM 60.8 °F - 53.6 °F 77% 29.67 in 10.0 mi SW 3.5 mph - N/A   Scattered Clouds
3:55 AM 62.6 °F - 53.6 °F 72% 29.66 in 10.0 mi SSW 3.5 mph - N/A Rain Light Rain
4:15 AM 60.8 °F - 57.2 °F 88% 29.66 in 10.0 mi SSW 3.5 mph - N/A   Scattered Clouds
4:35 AM 62.6 °F - 55.4 °F 77% 29.64 in 10.0 mi WSW 3.5 mph - N/A   Clear
4:55 AM 60.8 °F - 57.2 °F 88% 29.64 in 8.0 mi SSW 4.6 mph - N/A Rain Light Rain
5:15 AM 57.2 °F - 57.2 °F 100% 29.64 in 7.0 mi South 3.5 mph - N/A Rain Light Rain
5:35 AM 59.0 °F - 59.0 °F 100% 29.64 in 10.0 mi South 3.5 mph - 0.01 in   Mostly Cloudy
5:55 AM 59.0 °F - 59.0 °F 100% 29.64 in 10.0 mi SW 6.9 mph - 0.01 in   Partly Cloudy
6:15 AM 59.0 °F - 59.0 °F 100% 29.63 in 10.0 mi SSW 4.6 mph - N/A   Clear
6:35 AM 59.0 °F - 59.0 °F 100% 29.62 in 9.0 mi Calm Calm - N/A Rain Light Rain
6:55 AM 57.2 °F - 57.2 °F 100% 29.63 in 8.0 mi South 4.6 mph - N/A   Clear
7:15 AM 59.0 °F - 59.0 °F 100% 29.63 in 9.0 mi South 3.5 mph - N/A   Partly Cloudy
7:35 AM 59.0 °F - 59.0 °F 100% 29.62 in 10.0 mi South 4.6 mph - N/A   Mostly Cloudy
7:55 AM 59.0 °F - 59.0 °F 100% 29.61 in 10.0 mi South 3.5 mph - N/A   Overcast
8:15 AM 59.0 °F - 59.0 °F 100% 29.60 in 9.0 mi SSW 4.6 mph - N/A   Overcast
8:35 AM 59.0 °F - 59.0 °F 100% 29.60 in 8.0 mi SSW 4.6 mph - N/A   Overcast
8:55 AM 59.0 °F - 59.0 °F 100% 29.59 in 3.0 mi SSW 3.5 mph - N/A Rain Light Rain
9:15 AM 59.0 °F - 59.0 °F 100% 29.60 in 1.8 mi SSW 3.5 mph - 0.01 in Rain Light Rain
9:35 AM 57.2 °F - 57.2 °F 100% 29.59 in 1.2 mi SSW 4.6 mph - 0.04 in Rain Light Rain
9:55 AM 57.2 °F - 57.2 °F 100% 29.57 in 1.5 mi SSW 5.8 mph - 0.04 in Rain Light Rain
10:15 AM 59.0 °F - 59.0 °F 100% 29.57 in 5.0 mi SSW 5.8 mph - N/A   Overcast
10:35 AM 59.0 °F - 59.0 °F 100% 29.56 in 8.0 mi SSW 6.9 mph - N/A   Overcast
10:55 AM 59.0 °F - 59.0 °F 100% 29.55 in 8.0 mi South 4.6 mph - N/A   Overcast
11:15 AM 59.0 °F - 59.0 °F 100% 29.54 in 8.0 mi SSW 6.9 mph - N/A   Overcast
11:35 AM 59.0 °F - 59.0 °F 100% 29.53 in 10.0 mi SSW 4.6 mph - N/A   Overcast
11:55 AM 59.0 °F - 59.0 °F 100% 29.53 in 2.5 mi SSW 4.6 mph - N/A Rain Light Rain
12:15 PM 59.0 °F - 59.0 °F 100% 29.52 in 7.0 mi SSW 4.6 mph - N/A   Overcast
12:35 PM 59.0 °F - 59.0 °F 100% 29.51 in 10.0 mi SSW 5.8 mph - N/A   Overcast
12:55 PM 59.0 °F - 59.0 °F 100% 29.50 in 10.0 mi SSW 9.2 mph - N/A   Overcast
1:15 PM 60.8 °F - 60.8 °F 100% 29.48 in 8.0 mi SSW 6.9 mph - N/A   Overcast
1:35 PM 62.6 °F - 62.6 °F 100% 29.47 in 10.0 mi SW 11.5 mph 17.3 mph N/A   Overcast
1:55 PM 62.6 °F - 62.6 °F 100% 29.46 in 10.0 mi SSW 6.9 mph - N/A   Overcast
2:15 PM 64.4 °F - 62.6 °F 94% 29.44 in 10.0 mi SW 10.4 mph 17.3 mph N/A   Overcast
2:35 PM 64.4 °F - 62.6 °F 94% 29.43 in 10.0 mi SW 8.1 mph 19.6 mph N/A   Overcast
2:55 PM 68.0 °F - 62.6 °F 83% 29.40 in 10.0 mi SW 11.5 mph 24.2 mph N/A   Scattered Clouds
3:15 PM 69.8 °F - 59.0 °F 68% 29.40 in 10.0 mi SW 13.8 mph 25.3 mph N/A   Scattered Clouds
3:35 PM 71.6 °F - 59.0 °F 64% 29.38 in 10.0 mi SW 17.3 mph 24.2 mph N/A   Partly Cloudy
3:55 PM 71.6 °F - 59.0 °F 64% 29.37 in 10.0 mi SW 16.1 mph 23.0 mph N/A   Scattered Clouds
4:15 PM 73.4 °F - 57.2 °F 57% 29.37 in 10.0 mi SW 11.5 mph 27.6 mph N/A   Scattered Clouds
4:35 PM 73.4 °F - 55.4 °F 53% 29.36 in 10.0 mi WSW 21.9 mph 27.6 mph N/A   Mostly Cloudy
4:55 PM 73.4 °F - 55.4 °F 53% 29.36 in 10.0 mi SW 13.8 mph 23.0 mph N/A   Mostly Cloudy
5:15 PM 73.4 °F - 55.4 °F 53% 29.36 in 10.0 mi WSW 12.7 mph 25.3 mph N/A   Partly Cloudy
5:35 PM 73.4 °F - 53.6 °F 50% 29.35 in 10.0 mi SW 16.1 mph 24.2 mph N/A   Scattered Clouds
5:55 PM 71.6 °F - 53.6 °F 53% 29.35 in 10.0 mi SW 15.0 mph 26.5 mph N/A   Mostly Cloudy
6:15 PM 71.6 °F - 53.6 °F 53% 29.35 in 10.0 mi SW 12.7 mph 19.6 mph N/A   Mostly Cloudy
6:35 PM 71.6 °F - 55.4 °F 57% 29.37 in 10.0 mi WSW 9.2 mph 18.4 mph N/A Rain Light Rain
6:55 PM 69.8 °F - 53.6 °F 56% 29.38 in 10.0 mi West 16.1 mph 24.2 mph 0.01 in   Partly Cloudy
7:15 PM 69.8 °F - 46.4 °F 43% 29.40 in 10.0 mi West 27.6 mph 38.0 mph N/A   Clear
7:35 PM 66.2 °F - 46.4 °F 49% 29.44 in 10.0 mi West 24.2 mph 35.7 mph N/A   Clear
7:55 PM 62.6 °F - 41.0 °F 45% 29.49 in 10.0 mi WNW 20.7 mph 32.2 mph N/A   Partly Cloudy
8:15 PM 55.4 °F - 35.6 °F 47% 29.53 in 10.0 mi WNW 13.8 mph 31.1 mph N/A   Clear
8:35 PM 53.6 °F - 35.6 °F 51% 29.56 in 10.0 mi WNW 20.7 mph 26.5 mph N/A   Clear
8:55 PM 51.8 °F - 32.0 °F 47% 29.59 in 10.0 mi WNW 13.8 mph 24.2 mph N/A   Partly Cloudy
9:15 PM 50.0 °F - 32.0 °F 50% 29.61 in 10.0 mi West 11.5 mph 17.3 mph N/A   Mostly Cloudy
9:35 PM 50.0 °F - 32.0 °F 50% 29.63 in 10.0 mi WNW 11.5 mph 18.4 mph N/A   Overcast
9:55 PM 50.0 °F - 30.2 °F 47% 29.66 in 10.0 mi NW 18.4 mph 25.3 mph N/A   Scattered Clouds
10:15 PM 48.2 °F - 30.2 °F 50% 29.67 in 10.0 mi WNW 9.2 mph 17.3 mph N/A   Clear
10:35 PM 46.4 °F 42.4 °F 32.0 °F 57% 29.69 in 10.0 mi WNW 8.1 mph - N/A   Partly Cloudy
10:55 PM 46.4 °F 41.5 °F 30.2 °F 53% 29.70 in 10.0 mi WNW 10.4 mph - N/A   Mostly Cloudy
11:15 PM 48.2 °F - 30.2 °F 50% 29.72 in 10.0 mi WNW 6.9 mph - N/A   Overcast
11:35 PM 48.2 °F - 28.4 °F 46% 29.73 in 10.0 mi NW 9.2 mph - N/A   Overcast
11:55 PM 46.4 °F 43.5 °F 28.4 °F 50% 29.73 in 10.0 mi West 5.8 mph - N/A   Mostly Cloudy